TimeMST,TemperatureF,Dew PointF,Humidity,Sea Level PressureIn,VisibilityMPH,Wind Direction,Wind SpeedMPH,Gust SpeedMPH,PrecipitationIn,Events,Conditions,WindDirDegrees,DateUTC
12:53 AM,36.0,24.1,62,29.80,10.0,SSW,17.3,-,N/A,,Clear,210,2014-01-11 07:53:00
1:53 AM,37.9,24.1,57,29.76,10.0,SSW,15.0,25.3,N/A,,Mostly Cloudy,210,2014-01-11 08:53:00
2:53 AM,39.0,24.1,55,29.72,10.0,SW,20.7,29.9,N/A,,Clear,220,2014-01-11 09:53:00
3:53 AM,39.9,25.0,55,29.68,10.0,SSW,25.3,32.2,N/A,,Clear,210,2014-01-11 10:53:00
4:53 AM,41.0,26.1,55,29.64,10.0,SSW,24.2,31.1,N/A,,Clear,210,2014-01-11 11:53:00
5:53 AM,43.0,27.0,53,29.58,10.0,SW,33.4,47.2,N/A,,Clear,220,2014-01-11 12:53:00
6:53 AM,44.1,28.0,53,29.53,10.0,SSW,33.4,46.0,N/A,,Clear,210,2014-01-11 13:53:00
7:53 AM,45.0,28.0,52,29.50,10.0,SSW,28.8,41.4,N/A,,Clear,210,2014-01-11 14:53:00
8:53 AM,46.0,28.9,51,29.47,10.0,SSW,24.2,34.5,N/A,,Clear,200,2014-01-11 15:53:00
9:53 AM,48.0,28.9,48,29.42,10.0,South,28.8,36.8,N/A,,Clear,190,2014-01-11 16:53:00
10:53 AM,50.0,30.9,48,29.36,10.0,SSW,36.8,49.5,N/A,,Clear,210,2014-01-11 17:53:00
11:53 AM,52.0,30.9,45,29.31,10.0,SW,27.6,41.4,N/A,,Clear,220,2014-01-11 18:53:00
12:53 PM,52.0,30.9,45,29.25,10.0,SW,36.8,59.8,N/A,,Clear,220,2014-01-11 19:53:00
1:53 PM,53.1,32.0,45,29.24,10.0,SW,29.9,39.1,N/A,,Clear,220,2014-01-11 20:53:00
2:53 PM,50.0,34.0,54,29.23,10.0,SW,28.8,43.7,N/A,,Clear,230,2014-01-11 21:53:00
3:37 PM,41.0,35.6,81,29.27,4.0,West,34.5,59.8,0.00,Rain,Light Rain,260,2014-01-11 22:37:00
3:53 PM,41.0,35.1,79,29.33,10.0,West,35.7,46.0,0.00,,Overcast,270,2014-01-11 22:53:00
4:53 PM,37.9,30.9,76,29.39,10.0,SW,21.9,-,N/A,,Mostly Cloudy,230,2014-01-11 23:53:00
5:53 PM,37.0,28.0,70,29.42,10.0,SW,15.0,-,N/A,,Clear,230,2014-01-12 00:53:00
6:53 PM,35.1,24.1,64,29.43,10.0,SW,15.0,24.2,N/A,,Clear,230,2014-01-12 01:53:00
7:53 PM,35.1,21.0,57,29.42,10.0,SSW,20.7,34.5,N/A,,Clear,200,2014-01-12 02:53:00
8:53 PM,35.1,21.0,57,29.40,10.0,SW,16.1,21.9,N/A,,Clear,220,2014-01-12 03:53:00
9:53 PM,36.0,19.9,52,29.36,10.0,SW,23.0,29.9,N/A,,Clear,230,2014-01-12 04:53:00
10:53 PM,37.0,21.0,52,29.32,10.0,WSW,29.9,39.1,N/A,,Clear,240,2014-01-12 05:53:00
11:53 PM,36.0,21.0,55,29.35,10.0,WSW,21.9,29.9,N/A,,Clear,240,2014-01-12 06:53:00